Overview Statistics Trail Chart Weather Telemetry Raw packets
 

This is the latest recevied weather packets stored in our database for station/object KI6SYE. If no packets are shown the sender has not sent any weather packets the latest 10 day(s).

<< 65 66 67 68 69 70 71 >>
Time Temp. Humidity Pressure Rain* Wind** Luminosity Snow
1788225422 22.22° C 81% 1012.3 hPa 0 mm - 66 W/m² -
1788225121 22.22° C 80% 1012.3 hPa 0 mm - 77 W/m² -
1788224817 22.22° C 81% 1012.3 hPa 0 mm - 73 W/m² -
1788224517 22.22° C 80% 1012.6 hPa 0 mm - 62 W/m² -
1788224216 22.22° C 81% 1012.7 hPa 0 mm - 136 W/m² -
1788223911 22.22° C 81% 1012.6 hPa 0 mm - 85 W/m² -
1788223611 22.78° C 79% 1012.7 hPa 0 mm - 152 W/m² -
1788223306 22.78° C 79% 1012.6 hPa 0 mm - 159 W/m² -
1788223000 22.78° C 79% 1012.6 hPa 0 mm - 130 W/m² -
1788222700 22.78° C 80% 1012.7 hPa 0 mm - 188 W/m² -
1788222394 22.78° C 80% 1012.5 hPa 0 mm - 146 W/m² -
1788222089 22.78° C 80% 1012.6 hPa 0 mm - 205 W/m² -
1788221784 22.78° C 81% 1012.6 hPa 0 mm - 220 W/m² -
1788221478 23.33° C 80% 1012.4 hPa 0 mm - 232 W/m² -
1788221174 22.78° C 80% 1012.4 hPa 0 mm - 244 W/m² -
1788220870 22.78° C 81% 1012.5 hPa 0 mm - 263 W/m² -
1788220563 23.33° C 80% 1012.6 hPa 0 mm - 275 W/m² -
1788220259 23.33° C 79% 1012.7 hPa 0 mm - 287 W/m² -
1788219958 22.78° C 80% 1012.5 hPa 0 mm - 306 W/m² -
1788219663 23.89° C 79% 1012.7 hPa 0 mm - 321 W/m² -
1788219349 23.33° C 80% 1012.6 hPa 0 mm - 335 W/m² -
1788219045 23.33° C 80% 1012.5 hPa 0 mm - 350 W/m² -
1788218755 23.89° C 79% 1012.6 hPa 0 mm - 363 W/m² -
1788218436 24.44° C 77% 1012.5 hPa 0 mm - 376 W/m² -
1788218132 23.33° C 79% 1012.5 hPa 0 mm - 395 W/m² -

* Rain latest hour (hover to see other rain measurements)
** Current wind speed in m/s (hover to see current wind gust speed)